This demonstration page uses our WeatherBlox Daily Observations layout. Learn more.

Left ArrowRight Arrow

Hourly Observations for July 31, 2016

Temp ( °F °C ) Dew Point ( °F °C ) Humidity (%) Winds ( mph kmh ) Pressure ( in mb ) Visibility ( mi km ) Precip ( " mm )
12:24 am 00:24 Cloudy 75 23.9 73 22.8 94 94 Calm 30.00 1016 9 14 0.00 0.00
12:59 am 00:59 Cloudy 76 24.4 73 22.8 91 91 NW 3 6 29.98 1015 10 16 0.00 0.00
1:34 am 01:34 Mostly Cloudy 77 25 73 22.8 88 88 NNW 3 6 29.97 1015 10 16 0.00 0.00
1:59 am 01:59 Mostly Cloudy 75 23.9 73 22.8 94 94 Calm 29.96 1014 10 16 0.00 0.00
2:59 am 02:59 Mostly Cloudy 76 24.4 74 23.3 94 94 N 5 7 29.94 1014 8 13 0.00 0.00
3:59 am 03:59 Mostly Cloudy 76 24.4 74 23.3 94 94 Calm 29.95 1014 7 11 0.00 0.00
4:59 am 04:59 Cloudy 76 24.4 74 23.3 94 94 Calm 29.97 1015 8 13 0.00 0.00
5:59 am 05:59 Mostly Cloudy 76 24.4 74 23.3 94 94 Calm 29.98 1015 8 13 0.00 0.00
6:59 am 06:59 Mostly Cloudy 76 24.4 74 23.3 94 94 SSW 3 6 30.01 1016 7 11 0.00 0.00
7:59 am 07:59 Mostly Cloudy with Thunderstorms 78 25.6 75 23.9 90 90 SSW 3 6 30.02 1017 8 13 0.00 0.00
8:59 am 08:59 Mostly Cloudy with Thunderstorms 77 25 74 23.3 90 90 SSW 7 11 30.04 1017 3 5 0.00 0.03
9:07 am 09:07 Mostly Cloudy with Thunderstorms 77 25 74 23.3 90 90 SW 7 11 30.03 1017 1 2 0.01 0.25
9:10 am 09:10 Mostly Cloudy with Thunderstorms 76 24.4 74 23.3 94 94 SSW 6 9 30.06 1018 2 3 0.02 0.51
9:30 am 09:30 Mostly Cloudy with Thunderstorms 76 24.4 73 22.8 91 91 SSW 7 11 30.06 1018 9 14 0.04 1.02
9:59 am 09:59 Mostly Cloudy with Thunderstorms 76 24.4 73 22.8 91 91 SSW 5 7 30.04 1017 7 11 0.07 1.78
10:17 am 10:17 Mostly Cloudy with Thunderstorms 76 24.4 73 22.8 91 91 SSW 3 6 30.03 1017 5 8 0.01 0.25
10:40 am 10:40 Mostly Cloudy 77 25 74 23.3 90 90 Calm 30.03 1017 7 11 0.03 0.76
10:59 am 10:59 Mostly Cloudy with Mist and Fog 78 25.6 75 23.9 90 90 S 3 6 30.03 1017 6 10 0.04 1.02
11:59 am 11:59 Mostly Cloudy 82 27.8 76 24.4 82 82 SW 8 13 30.04 1017 9 14 0.00 0.00
12:59 pm 12:59 Mostly Cloudy 83 28.3 75 23.9 77 77 SW 8 13 30.02 1017 10 16 0.00 0.03
1:59 pm 13:59 Mostly Cloudy 87 30.6 76 24.4 70 70 WSW 7 11 30.01 1016 9 14 0.00 0.00
2:59 pm 14:59 Mostly Cloudy 89 31.7 75 23.9 63 63 WSW 7 11 29.99 1016 9 14 0.00 0.00
3:59 pm 15:59 Mostly Cloudy 90 32.2 74 23.3 59 59 SSW 7 11 30.00 1016 10 16 0.00 0.00
4:29 pm 16:29 Mostly Cloudy with Thunderstorms 91 32.8 75 23.9 59 59 SW 5 7 29.97 1015 9 14 0.00 0.00
4:59 pm 16:59 Mostly Cloudy with Thunderstorms 87 30.6 77 25 72 72 ENE 12 19 29.97 1015 9 14 0.00 0.00
5:03 pm 17:03 Mostly Cloudy 86 30 77 25 75 75 NE 9 15 29.97 1015 9 14 0.00 0.00
5:25 pm 17:25 Cloudy with Thunderstorms 86 30 77 25 75 75 E 8 13 29.97 1015 9 14 0.00 0.00
5:59 pm 17:59 Windy with Storms Likely 81 27.2 76 24.4 85 85 SE 22 35 29.99 1016 7 11 0.03 0.76
6:13 pm 18:13 Cloudy with Strong Thunderstorms 76 24.4 73 22.8 91 91 SE 26 43 30.03 1017 1 1 0.04 1.02
6:19 pm 18:19 Cloudy with Strong Thunderstorms 74 23.3 72 22.2 94 94 SE 23 37 30.03 1017 0 0 0.13 3.30
6:28 pm 18:28 Cloudy with Strong Thunderstorms 74 23.3 72 22.2 94 94 SE 17 28 30.06 1018 0 0 0.28 7.11
6:41 pm 18:41 Cloudy with Strong Thunderstorms 73 22.8 72 22.2 96 96 E 13 20 30.06 1018 1 1 0.73 18.54
6:59 pm 18:59 Cloudy with Strong Thunderstorms 73 22.8 71 21.7 94 94 VRB 3 6 30.07 1018 1 1 1.35 34.29
7:23 pm 19:23 Cloudy with Thunderstorms 73 22.8 69 20.6 87 87 ESE 18 30 30.06 1018 1 2 0.83 21.08
8:03 pm 20:03 Mostly Cloudy with Light Rain 73 22.8 70 21.1 90 90 SSW 7 11 30.03 1017 7 11 0.00 0.03
8:37 pm 20:37 Mostly Cloudy with Thunderstorms 76 24.4 72 22.2 88 88 SW 13 20 30.03 1017 10 16 0.00 0.03
8:50 pm 20:50 Mostly Cloudy 77 25 73 22.8 88 88 SW 12 19 30.03 1017 10 16 0.00 0.03
8:59 pm 20:59 Mostly Cloudy 77 25 73 22.8 88 88 SW 9 15 30.01 1016 10 16 0.00 0.03
9:59 pm 21:59 Cloudy 77 25 73 22.8 88 88 SW 5 7 30.01 1016 10 16 0.00 0.00
10:59 pm 22:59 Cloudy 77 25 72 22.2 85 85 WSW 8 13 30.04 1017 10 16 0.00 0.00
11:59 pm 23:59 Cloudy 77 25 72 22.2 85 85 WSW 9 15 30.03 1017 10 16 0.00 0.00

Powered by AerisWeather